Time,TemperatureF,DewpointF,PressureIn,WindDirection,WindDirectionDegrees,WindSpeedMPH,WindSpeedGustMPH,Humidity,HourlyPrecipIn,Conditions,Clouds,dailyrainin,SoftwareType,DateUTC
2013-04-06 00:04:00,50.4,46.6,29.85,ESE,112,1.3,0.0,87,0.00,,,0.18,,2013-04-05 22:04:00,
2013-04-06 00:09:00,50.4,46.6,29.85,East,90,0.8,1.3,87,0.00,,,0.00,,2013-04-05 22:09:00,
2013-04-06 00:14:00,50.5,46.8,29.85,ESE,112,1.7,1.7,87,0.00,,,0.00,,2013-04-05 22:14:00,
2013-04-06 00:19:00,50.5,46.8,29.82,ESE,112,2.2,4.0,87,0.00,,,0.00,,2013-04-05 22:19:00,
2013-04-06 00:29:00,50.5,46.8,29.82,SE,135,2.6,4.9,87,0.00,,,0.00,,2013-04-05 22:29:00,
2013-04-06 00:34:00,50.5,46.8,29.82,SSE,157,3.1,3.5,87,0.00,,,0.00,,2013-04-05 22:34:00,
2013-04-06 00:39:00,50.5,46.4,29.82,SE,135,1.7,1.7,86,0.00,,,0.00,,2013-04-05 22:39:00,
2013-04-06 00:44:00,50.4,46.2,29.82,SSW,202,1.7,4.4,86,0.00,,,0.00,,2013-04-05 22:44:00,
2013-04-06 00:54:00,50.4,46.2,29.82,SSE,157,1.7,3.1,86,0.00,,,0.00,,2013-04-05 22:54:00,
2013-04-06 01:04:00,50.5,46.4,29.82,SE,135,3.1,4.4,86,0.00,,,0.00,,2013-04-05 23:04:00,
2013-04-06 01:09:00,50.4,46.6,29.82,SE,135,1.3,1.7,87,0.00,,,0.00,,2013-04-05 23:09:00,
2013-04-06 01:19:00,50.2,46.0,29.85,South,180,0.4,2.6,86,0.00,,,0.00,,2013-04-05 23:19:00,
2013-04-06 08:00:00,52.2,46.0,29.82,East,90,1.3,2.2,80,-99.99,,,0.00,,2013-04-06 06:00:00,
2013-04-06 08:05:00,52.3,45.9,29.82,ESE,112,0.0,0.4,79,0.00,,,0.00,,2013-04-06 06:05:00,
2013-04-06 08:10:00,52.7,46.2,29.82,SE,135,0.0,0.0,79,0.00,,,0.00,,2013-04-06 06:10:00,
2013-04-06 08:15:00,52.7,45.9,29.82,ENE,67,0.0,0.4,78,0.00,,,0.00,,2013-04-06 06:15:00,
2013-04-06 08:20:00,53.1,46.2,29.82,East,90,0.0,0.0,78,0.00,,,0.00,,2013-04-06 06:20:00,
2013-04-06 08:25:00,53.4,46.2,29.79,East,90,0.0,0.0,77,0.00,,,0.00,,2013-04-06 06:25:00,
2013-04-06 08:30:00,54.1,46.6,29.79,East,90,0.0,0.0,76,0.00,,,0.00,,2013-04-06 06:30:00,
2013-04-06 08:35:00,54.3,46.4,29.85,East,90,0.0,0.0,75,0.00,,,0.00,,2013-04-06 06:35:00,
2013-04-06 08:40:00,54.7,46.4,29.85,East,90,0.0,0.0,74,0.00,,,0.00,,2013-04-06 06:40:00,
2013-04-06 08:45:00,55.2,46.9,29.82,East,90,0.0,0.0,74,0.00,,,0.00,,2013-04-06 06:45:00,
2013-04-06 08:50:00,55.6,46.9,29.82,East,90,0.0,0.0,73,0.00,,,0.00,,2013-04-06 06:50:00,
2013-04-06 08:55:00,56.1,47.1,29.85,East,90,0.0,0.0,72,0.00,,,0.00,,2013-04-06 06:55:00,
2013-04-06 09:00:00,56.1,46.8,29.85,East,90,0.0,0.0,71,0.00,,,0.00,,2013-04-06 07:00:00,
2013-04-06 09:05:00,56.1,46.8,29.82,East,90,0.0,0.0,71,0.00,,,0.00,,2013-04-06 07:05:00,
2013-04-06 09:15:00,55.9,46.2,29.82,NW,315,0.8,1.3,70,0.00,,,0.00,,2013-04-06 07:15:00,
2013-04-06 09:20:00,55.9,46.2,29.82,NW,315,0.8,0.8,70,0.00,,,0.00,,2013-04-06 07:20:00,
2013-04-06 09:30:00,56.1,46.8,29.79,North,0,0.4,1.3,71,0.00,,,0.00,,2013-04-06 07:30:00,
2013-04-06 09:35:00,56.1,47.1,29.82,NNW,337,0.8,1.7,72,0.00,,,0.00,,2013-04-06 07:35:00,
2013-04-06 09:45:00,56.3,47.3,29.82,NW,315,0.8,0.8,72,0.00,,,0.00,,2013-04-06 07:45:00,
2013-04-06 09:50:00,56.5,47.5,29.82,NW,315,0.4,0.0,72,0.00,,,0.00,,2013-04-06 07:50:00,
2013-04-06 09:55:00,56.5,47.1,29.82,NW,315,1.3,2.6,71,0.00,,,0.00,,2013-04-06 07:55:00,
2013-04-06 10:05:00,56.5,47.1,29.82,NW,315,1.3,1.3,71,0.00,,,0.00,,2013-04-06 08:05:00,
2013-04-06 10:10:00,56.7,47.3,29.82,NW,315,0.4,1.7,71,0.00,,,0.00,,2013-04-06 08:10:00,
2013-04-06 10:20:00,57.2,47.5,29.82,NW,315,0.8,1.7,70,0.00,,,0.00,,2013-04-06 08:20:00,
2013-04-06 10:25:00,57.2,47.5,29.85,NNE,22,0.8,0.8,70,0.00,,,0.00,,2013-04-06 08:25:00,
2013-04-06 10:30:00,57.4,47.7,29.85,NW,315,1.7,1.7,70,0.00,,,0.00,,2013-04-06 08:30:00,
2013-04-06 10:35:00,57.7,47.8,29.85,North,0,1.3,2.6,70,0.00,,,0.00,,2013-04-06 08:35:00,
2013-04-06 10:40:00,58.1,48.2,29.85,NW,315,1.3,4.4,70,0.00,,,0.00,,2013-04-06 08:40:00,
2013-04-06 10:45:00,58.3,48.0,29.82,NNW,337,1.3,1.3,69,0.00,,,0.00,,2013-04-06 08:45:00,
2013-04-06 10:50:00,58.5,48.2,29.82,NNW,337,2.2,2.2,69,0.00,,,0.00,,2013-04-06 08:50:00,
2013-04-06 10:55:00,58.6,48.0,29.82,NW,315,0.8,1.7,68,0.00,,,0.00,,2013-04-06 08:55:00,
2013-04-06 11:00:00,59.2,48.6,29.82,SE,135,0.0,0.0,68,0.00,,,0.00,,2013-04-06 09:00:00,
2013-04-06 11:05:00,59.7,49.1,29.85,NNE,22,0.4,0.0,68,0.00,,,0.00,,2013-04-06 09:05:00,
2013-04-06 11:10:00,60.1,49.5,29.85,WSW,247,1.3,4.4,68,0.00,,,0.00,,2013-04-06 09:10:00,
2013-04-06 11:15:00,59.9,48.7,29.85,SSE,157,1.3,1.7,67,0.00,,,0.00,,2013-04-06 09:15:00,
2013-04-06 11:20:00,60.4,49.3,29.85,WSW,247,2.2,4.0,67,0.00,,,0.00,,2013-04-06 09:20:00,
2013-04-06 11:25:00,60.3,48.4,29.82,WNW,292,1.7,1.7,65,0.00,,,0.00,,2013-04-06 09:25:00,
2013-04-06 11:30:00,60.6,48.7,29.82,NNW,337,0.4,0.0,65,0.00,,,0.00,,2013-04-06 09:30:00,
2013-04-06 11:40:00,61.0,48.6,29.82,West,270,1.3,0.0,64,0.00,,,0.00,,2013-04-06 09:40:00,
2013-04-06 11:50:00,62.4,50.0,29.82,WSW,247,1.7,3.5,64,0.00,,,0.00,,2013-04-06 09:50:00,
2013-04-06 11:55:00,62.2,49.5,29.82,WSW,247,0.8,1.3,63,0.00,,,0.00,,2013-04-06 09:55:00,
2013-04-06 12:05:00,63.0,49.6,29.82,West,270,2.2,5.8,62,0.00,,,0.00,,2013-04-06 10:05:00,
2013-04-06 12:15:00,63.3,50.0,29.82,West,270,1.3,4.0,62,0.00,,,0.00,,2013-04-06 10:15:00,
2013-04-06 12:25:00,63.9,49.1,29.82,SSW,202,1.7,4.0,59,0.00,,,0.00,,2013-04-06 10:25:00,
2013-04-06 12:30:00,62.6,47.5,29.82,SW,225,3.1,3.1,58,0.00,,,0.00,,2013-04-06 10:30:00,
2013-04-06 12:35:00,62.6,48.4,29.85,SSE,157,1.3,3.1,60,0.00,,,0.00,,2013-04-06 10:35:00,
2013-04-06 12:40:00,63.3,49.1,29.85,SSE,157,1.7,1.7,60,0.00,,,0.00,,2013-04-06 10:40:00,
2013-04-06 12:45:00,62.8,48.2,29.82,SSW,202,2.6,4.9,59,0.00,,,0.00,,2013-04-06 10:45:00,
2013-04-06 12:50:00,61.5,47.8,29.82,South,180,3.5,8.5,61,0.00,,,0.00,,2013-04-06 10:50:00,
2013-04-06 12:55:00,61.7,49.3,29.85,South,180,0.8,3.5,64,0.00,,,0.00,,2013-04-06 10:55:00,
2013-04-06 13:00:00,61.3,48.6,29.85,WNW,292,2.2,4.9,63,0.00,,,0.00,,2013-04-06 11:00:00,
2013-04-06 13:05:00,61.0,48.6,29.85,SW,225,0.8,1.7,64,0.00,,,0.00,,2013-04-06 11:05:00,
2013-04-06 13:10:00,60.4,48.6,29.85,SSW,202,2.6,3.1,65,0.00,,,0.00,,2013-04-06 11:10:00,
2013-04-06 13:20:00,59.9,49.3,29.85,East,90,1.7,1.7,68,0.00,,,0.00,,2013-04-06 11:20:00,
2013-04-06 13:25:00,60.3,50.0,29.85,SW,225,1.3,2.6,69,0.00,,,0.00,,2013-04-06 11:25:00,
2013-04-06 13:30:00,60.1,49.8,29.85,WSW,247,2.2,3.1,69,0.00,,,0.00,,2013-04-06 11:30:00,
2013-04-06 13:40:00,60.6,50.4,29.82,ENE,67,0.8,2.6,69,0.00,,,0.00,,2013-04-06 11:40:00,
2013-04-06 13:45:00,60.3,49.6,29.82,South,180,2.2,0.0,68,0.00,,,0.00,,2013-04-06 11:45:00,
2013-04-06 13:50:00,59.9,49.3,29.82,NW,315,2.2,3.5,68,0.00,,,0.00,,2013-04-06 11:50:00,
2013-04-06 13:55:00,59.9,49.6,29.85,NNE,22,2.2,3.5,69,0.00,,,0.00,,2013-04-06 11:55:00,
2013-04-06 14:00:00,60.1,50.5,29.85,SW,225,1.7,2.6,71,0.00,,,0.00,,2013-04-06 12:00:00,
2013-04-06 14:05:00,60.3,50.7,29.85,ESE,112,1.7,1.7,71,0.00,,,0.00,,2013-04-06 12:05:00,
2013-04-06 14:15:00,60.1,50.5,29.82,WSW,247,1.7,2.2,71,0.00,,,0.00,,2013-04-06 12:15:00,
2013-04-06 14:20:00,60.8,51.3,29.82,NNW,337,1.7,2.2,71,0.00,,,0.00,,2013-04-06 12:20:00,
2013-04-06 14:25:00,61.3,51.4,29.82,SW,225,3.1,9.3,70,0.00,,,0.00,,2013-04-06 12:25:00,
2013-04-06 14:30:00,61.3,51.4,29.82,ESE,112,2.2,3.1,70,0.00,,,0.00,,2013-04-06 12:30:00,
2013-04-06 14:35:00,62.4,52.3,29.79,NW,315,0.0,0.0,70,0.00,,,0.00,,2013-04-06 12:35:00,
2013-04-06 14:45:00,62.8,52.0,29.79,SW,225,2.2,2.6,68,0.00,,,0.00,,2013-04-06 12:45:00,
2013-04-06 14:50:00,62.8,51.6,29.79,NNW,337,1.3,1.3,67,0.00,,,0.00,,2013-04-06 12:50:00,
2013-04-06 14:55:00,62.6,50.9,29.82,WNW,292,2.6,2.6,66,0.00,,,0.00,,2013-04-06 12:55:00,
2013-04-06 15:00:00,63.1,51.4,29.82,West,270,1.7,4.0,66,0.00,,,0.00,,2013-04-06 13:00:00,
2013-04-06 15:10:00,63.7,52.0,29.79,NW,315,0.0,1.3,66,0.00,,,0.00,,2013-04-06 13:10:00,
2013-04-06 15:15:00,63.9,51.4,29.82,West,270,1.7,2.6,64,0.00,,,0.00,,2013-04-06 13:15:00,
2013-04-06 15:25:00,62.6,49.8,29.82,SE,135,2.2,3.5,63,0.00,,,0.00,,2013-04-06 13:25:00,
2013-04-06 15:30:00,62.8,49.8,29.82,SSW,202,1.3,4.4,63,0.00,,,0.00,,2013-04-06 13:30:00,
2013-04-06 15:35:00,62.8,49.5,29.79,SW,225,4.4,7.6,62,0.00,,,0.00,,2013-04-06 13:35:00,
2013-04-06 15:40:00,62.1,48.7,29.79,SSW,202,6.7,12.0,62,0.00,,,0.00,,2013-04-06 13:40:00,
2013-04-06 15:45:00,61.7,49.3,29.79,SW,225,4.4,8.9,64,0.00,,,0.00,,2013-04-06 13:45:00,
2013-04-06 15:50:00,61.3,48.9,29.79,SSW,202,4.9,8.9,64,0.00,,,0.00,,2013-04-06 13:50:00,
2013-04-06 15:55:00,61.5,49.5,29.79,South,180,1.7,3.5,65,0.00,,,0.00,,2013-04-06 13:55:00,
2013-04-06 16:00:00,61.9,49.8,29.79,SSW,202,2.2,2.6,65,0.00,,,0.00,,2013-04-06 14:00:00,
2013-04-06 16:05:00,61.9,49.5,29.79,SW,225,3.5,4.9,64,0.00,,,0.00,,2013-04-06 14:05:00,
2013-04-06 16:10:00,61.5,49.1,29.79,WSW,247,3.5,3.5,64,0.00,,,0.00,,2013-04-06 14:10:00,
2013-04-06 16:15:00,61.3,49.5,29.79,WSW,247,2.6,5.3,65,0.00,,,0.00,,2013-04-06 14:15:00,
2013-04-06 16:20:00,60.6,49.1,29.79,SSW,202,4.0,6.2,66,0.00,,,0.00,,2013-04-06 14:20:00,
2013-04-06 16:25:00,60.4,48.9,29.79,South,180,6.2,6.7,66,0.00,,,0.00,,2013-04-06 14:25:00,
2013-04-06 16:30:00,60.8,50.9,29.79,West,270,3.1,4.4,70,0.00,,,0.00,,2013-04-06 14:30:00,
2013-04-06 16:35:00,60.6,51.1,29.76,West,270,4.9,9.8,71,0.00,,,0.00,,2013-04-06 14:35:00,
2013-04-06 16:40:00,60.6,51.4,29.76,WNW,292,4.0,9.3,72,0.00,,,0.00,,2013-04-06 14:40:00,
2013-04-06 16:45:00,60.3,51.4,29.79,SW,225,2.6,4.4,73,0.00,,,0.00,,2013-04-06 14:45:00,
2013-04-06 16:50:00,59.9,51.1,29.79,West,270,3.1,4.9,73,0.00,,,0.00,,2013-04-06 14:50:00,
2013-04-06 16:55:00,60.1,51.3,29.76,West,270,1.7,2.2,73,0.00,,,0.00,,2013-04-06 14:55:00,
2013-04-06 17:00:00,60.3,51.1,29.76,SSW,202,3.5,5.3,72,0.00,,,0.00,,2013-04-06 15:00:00,
2013-04-06 17:10:00,59.7,50.2,29.79,West,270,2.6,4.0,71,0.00,,,0.00,,2013-04-06 15:10:00,
2013-04-06 17:15:00,59.7,50.2,29.76,SW,225,3.5,4.0,71,0.00,,,0.00,,2013-04-06 15:15:00,
2013-04-06 17:25:00,59.9,51.1,29.76,WSW,247,3.5,3.5,73,0.00,,,0.00,,2013-04-06 15:25:00,
2013-04-06 17:30:00,59.5,50.7,29.76,SSW,202,3.5,7.6,73,0.00,,,0.00,,2013-04-06 15:30:00,
2013-04-06 17:35:00,59.5,50.7,29.76,WSW,247,4.0,13.4,73,0.00,,,0.00,,2013-04-06 15:35:00,
2013-04-06 17:40:00,59.4,50.2,29.76,SW,225,4.9,7.6,72,0.00,,,0.00,,2013-04-06 15:40:00,
2013-04-06 17:45:00,59.2,49.6,29.79,SSW,202,5.3,8.0,71,0.00,,,0.00,,2013-04-06 15:45:00,
2013-04-06 17:50:00,59.0,49.5,29.79,SW,225,6.2,8.5,71,0.00,,,0.00,,2013-04-06 15:50:00,
2013-04-06 17:55:00,58.8,48.9,29.79,SSW,202,5.8,11.1,70,0.00,,,0.00,,2013-04-06 15:55:00,
2013-04-06 18:00:00,59.0,49.1,29.79,SW,225,3.5,5.3,70,0.00,,,0.00,,2013-04-06 16:00:00,
2013-04-06 18:05:00,58.8,49.3,29.79,SSW,202,4.0,8.5,71,0.00,,,0.00,,2013-04-06 16:05:00,
2013-04-06 18:10:00,58.8,49.3,29.79,SSW,202,3.5,5.3,71,0.00,,,0.00,,2013-04-06 16:10:00,
2013-04-06 18:15:00,58.5,49.5,29.79,SSW,202,4.4,4.4,72,0.00,,,0.00,,2013-04-06 16:15:00,
2013-04-06 18:20:00,58.5,49.8,29.79,SSW,202,0.8,0.8,73,0.00,,,0.00,,2013-04-06 16:20:00,
2013-04-06 18:25:00,58.6,50.0,29.79,SSW,202,0.8,1.3,73,0.00,,,0.00,,2013-04-06 16:25:00,
2013-04-06 18:30:00,58.3,49.3,29.79,WSW,247,2.2,2.6,72,0.00,,,0.00,,2013-04-06 16:30:00,
2013-04-06 18:35:00,58.3,49.3,29.79,WSW,247,2.6,4.0,72,0.00,,,0.00,,2013-04-06 16:35:00,
2013-04-06 18:45:00,58.1,49.8,29.79,SW,225,0.8,3.1,74,0.00,,,0.00,,2013-04-06 16:45:00,
2013-04-06 18:55:00,57.7,49.8,29.79,WSW,247,1.7,3.5,75,0.00,,,0.00,,2013-04-06 16:55:00,
2013-04-06 19:00:00,57.6,50.0,29.79,SW,225,1.7,1.7,76,0.00,,,0.00,,2013-04-06 17:00:00,
2013-04-06 19:05:00,57.2,50.0,29.79,SW,225,0.8,2.2,77,0.00,,,0.00,,2013-04-06 17:05:00,
2013-04-06 19:15:00,56.8,50.0,29.79,West,270,0.4,1.3,78,0.00,,,0.00,,2013-04-06 17:15:00,
2013-04-06 19:20:00,56.8,50.0,29.79,West,270,0.0,0.4,78,0.00,,,0.00,,2013-04-06 17:20:00,
2013-04-06 19:25:00,56.7,50.2,29.79,WNW,292,0.0,0.0,79,0.00,,,0.00,,2013-04-06 17:25:00,
2013-04-06 19:30:00,56.5,50.0,29.79,NNE,22,0.4,1.3,79,0.00,,,0.00,,2013-04-06 17:30:00,
2013-04-06 19:35:00,56.1,49.6,29.79,West,270,0.4,0.0,79,0.00,,,0.00,,2013-04-06 17:35:00,
2013-04-06 19:40:00,55.9,49.8,29.79,West,270,0.4,0.0,80,0.00,,,0.00,,2013-04-06 17:40:00,
2013-04-06 19:45:00,55.6,49.5,29.82,NW,315,0.0,0.0,80,0.00,,,0.00,,2013-04-06 17:45:00,
2013-04-06 19:50:00,55.2,49.1,29.82,North,0,0.0,0.0,80,0.00,,,0.00,,2013-04-06 17:50:00,
2013-04-06 19:55:00,55.0,49.3,29.82,NE,45,0.0,0.0,81,0.00,,,0.00,,2013-04-06 17:55:00,
2013-04-06 20:00:00,54.9,49.1,29.82,NE,45,0.4,1.3,81,0.00,,,0.00,,2013-04-06 18:00:00,
2013-04-06 20:05:00,54.7,49.3,29.82,NNE,22,1.3,1.7,82,0.00,,,0.00,,2013-04-06 18:05:00,
2013-04-06 20:10:00,54.5,49.3,29.82,NE,45,0.0,0.0,83,0.00,,,0.00,,2013-04-06 18:10:00,
2013-04-06 20:15:00,54.5,49.3,29.82,ENE,67,0.4,1.7,83,0.00,,,0.00,,2013-04-06 18:15:00,
2013-04-06 20:25:00,54.1,48.9,29.79,ESE,112,1.3,1.7,83,0.00,,,0.00,,2013-04-06 18:25:00,
2013-04-06 20:30:00,54.1,49.3,29.79,ESE,112,0.8,1.7,84,0.00,,,0.00,,2013-04-06 18:30:00,
2013-04-06 20:35:00,54.1,49.3,29.79,ESE,112,1.3,2.2,84,0.00,,,0.00,,2013-04-06 18:35:00,
2013-04-06 20:40:00,54.0,49.1,29.79,SE,135,0.8,0.8,84,0.00,,,0.00,,2013-04-06 18:40:00,
2013-04-06 20:45:00,54.0,49.1,29.79,SE,135,0.8,1.3,84,0.00,,,0.00,,2013-04-06 18:45:00,
2013-04-06 20:50:00,54.0,48.7,29.79,SE,135,0.4,1.3,83,0.00,,,0.00,,2013-04-06 18:50:00,
2013-04-06 20:55:00,54.0,48.7,29.82,ESE,112,0.0,0.4,83,0.00,,,0.00,,2013-04-06 18:55:00,
2013-04-06 21:00:00,54.1,48.7,29.82,East,90,0.4,0.4,82,0.00,,,0.00,,2013-04-06 19:00:00,
2013-04-06 21:05:00,54.3,48.2,29.82,East,90,1.3,2.6,80,0.00,,,0.00,,2013-04-06 19:05:00,
2013-04-06 21:10:00,54.5,47.7,29.82,East,90,1.3,2.2,78,0.00,,,0.00,,2013-04-06 19:10:00,
2013-04-06 21:15:00,54.5,47.7,29.82,East,90,0.4,0.0,78,0.00,,,0.00,,2013-04-06 19:15:00,
2013-04-06 21:20:00,54.3,47.1,29.82,SE,135,0.4,0.4,77,0.00,,,0.00,,2013-04-06 19:20:00,
2013-04-06 21:25:00,54.1,46.9,29.82,East,90,0.0,0.0,77,0.00,,,0.00,,2013-04-06 19:25:00,
2013-04-06 21:30:00,54.1,46.9,29.82,NE,45,0.4,0.0,77,0.00,,,0.00,,2013-04-06 19:30:00,
2013-04-06 21:40:00,54.1,46.6,29.82,East,90,0.0,0.0,76,0.00,,,0.00,,2013-04-06 19:40:00,
2013-04-06 21:45:00,54.0,46.4,29.82,NNE,22,0.8,0.0,76,0.00,,,0.00,,2013-04-06 19:45:00,
2013-04-06 21:50:00,53.6,46.0,29.82,NE,45,0.4,0.8,76,0.00,,,0.00,,2013-04-06 19:50:00,
2013-04-06 21:55:00,53.6,46.4,29.82,NE,45,1.3,2.6,77,0.00,,,0.00,,2013-04-06 19:55:00,
2013-04-06 22:00:00,53.6,46.8,29.82,NE,45,2.2,3.1,78,0.00,,,0.00,,2013-04-06 20:00:00,
2013-04-06 22:05:00,53.8,46.9,29.82,East,90,3.1,5.8,78,0.00,,,0.00,,2013-04-06 20:05:00,
2013-04-06 22:10:00,54.1,47.3,29.82,East,90,2.6,4.9,78,0.00,,,0.00,,2013-04-06 20:10:00,
2013-04-06 22:15:00,54.1,47.3,29.82,NE,45,2.2,3.1,78,0.00,,,0.00,,2013-04-06 20:15:00,
2013-04-06 22:20:00,54.1,46.9,29.82,ENE,67,2.2,3.5,77,0.00,,,0.00,,2013-04-06 20:20:00,
2013-04-06 22:25:00,54.3,46.8,29.82,NNE,22,1.3,2.6,76,0.00,,,0.00,,2013-04-06 20:25:00,
2013-04-06 22:30:00,54.3,46.4,29.82,NNE,22,1.7,4.4,75,0.00,,,0.00,,2013-04-06 20:30:00,
2013-04-06 22:35:00,54.5,46.2,29.79,NE,45,1.7,1.7,74,0.00,,,0.00,,2013-04-06 20:35:00,
2013-04-06 22:40:00,54.5,45.9,29.79,NE,45,0.4,0.0,73,0.00,,,0.00,,2013-04-06 20:40:00,
2013-04-06 22:45:00,54.5,45.9,29.82,NE,45,0.8,2.2,73,0.00,,,0.00,,2013-04-06 20:45:00,
2013-04-06 22:50:00,54.7,45.7,29.82,East,90,0.4,2.2,72,0.00,,,0.00,,2013-04-06 20:50:00,
2013-04-06 22:55:00,54.7,45.3,29.82,NE,45,0.4,1.3,71,0.00,,,0.00,,2013-04-06 20:55:00,
2013-04-06 23:00:00,54.9,44.8,29.82,NE,45,2.2,3.5,69,0.00,,,0.00,,2013-04-06 21:00:00,
2013-04-06 23:05:00,54.9,44.8,29.79,NNE,22,2.2,4.4,69,0.00,,,0.00,,2013-04-06 21:05:00,
2013-04-06 23:10:00,54.9,44.8,29.79,NE,45,3.5,5.3,69,0.00,,,0.00,,2013-04-06 21:10:00,
2013-04-06 23:20:00,54.9,44.8,29.82,NE,45,3.5,3.5,69,0.00,,,0.00,,2013-04-06 21:20:00,
2013-04-06 23:25:00,54.9,44.4,29.82,NE,45,1.7,5.3,68,0.00,,,0.00,,2013-04-06 21:25:00,
2013-04-06 23:35:00,54.9,44.8,29.79,NE,45,1.3,2.2,69,0.00,,,0.00,,2013-04-06 21:35:00,
2013-04-06 23:40:00,55.0,45.0,29.79,NE,45,0.8,1.7,69,0.00,,,0.00,,2013-04-06 21:40:00,
2013-04-06 23:45:00,55.0,45.0,29.79,NE,45,0.8,2.2,69,0.00,,,0.00,,2013-04-06 21:45:00,
2013-04-06 23:50:00,55.2,45.1,29.79,NE,45,1.7,2.2,69,0.00,,,0.00,,2013-04-06 21:50:00,
2013-04-06 23:55:00,55.2,45.1,29.82,ENE,67,0.4,2.2,69,0.00,,,0.00,,2013-04-06 21:55:00,